Location: Newark
(40.3500°N, 15.2333°E)
Time: 19:19:07
(UTC+00:00)

Explorer 11/Cluster Stage 4 - Visible Passes

Search period start: 19 January 2020 00:00
Search period end: 29 January 2020 00:00
Orbit: 467 x 1259 km, 28.8° (Epoch: 18 January)

Date Brightness Start Highest point End Pass type
(mag) Time Alt. Az. Time Alt. Az. Time Alt. Az.
19 Jan 8.5 16:35:39 10° SW 16:40:42 24° S 16:45:00 10° SE visible
19 Jan 8.2 18:24:35 10° WSW 18:28:35 20° SSW 18:29:05 20° S visible
20 Jan 8.5 16:24:28 10° SW 16:29:55 26° S 16:34:30 10° ESE visible
20 Jan 8.2 18:13:38 10° WSW 18:17:49 20° SSW 18:19:17 18° S visible
21 Jan 8.4 18:02:41 10° WSW 18:07:01 20° SSW 18:09:32 15° SSE visible
22 Jan 8.7 17:51:43 10° WSW 17:56:11 20° SSW 17:59:50 11° SSE visible
23 Jan 8.8 17:40:47 10° WSW 17:45:20 20° SSW 17:49:17 10° SSE visible
24 Jan 8.9 17:29:52 10° WSW 17:34:27 19° SSW 17:38:28 10° SSE visible
25 Jan 9.1 17:18:58 10° WSW 17:23:33 19° SSW 17:27:36 10° SSE visible
26 Jan 9.2 17:08:07 10° WSW 17:12:37 18° SSW 17:16:39 10° SSE visible
27 Jan 9.4 16:57:19 10° WSW 17:01:40 17° SSW 17:05:37 10° S visible
28 Jan 9.5 16:46:35 10° WSW 16:50:41 15° SSW 16:54:29 10° S visible
